Preview of NWS' New Version of Forecast
This preview is not operational and should not be used for support decisions.

Regional Weather Roundup (RWR)

Issued by National Weather Service (NWS)

                            
000
ASUS42 KTBW 250315
RWRFL 
FLORIDA REGIONAL WEATHER ROUNDUP
NATIONAL WEATHER SERVICE TAMPA BAY RUSKIN FL
1100 PM EDT MON JUN 24 2019

NOTE: "FAIR" INDICATES FEW OR NO CLOUDS BELOW 12,000 FEET WITH NO
SIGNIFICANT WEATHER AND/OR OBSTRUCTIONS TO VISIBILITY.

FLZ001>010-012>015-112-114-115-250400-
PANHANDLE FLORIDA
  
CITY           SKY/WX    TMP DP  RH WIND       PRES   REMARKS
PENSACOLA      FAIR      83  78  85 SW8       29.99R                  
PENSACOLA NAS  MOCLDY    82  79  90 SW8       29.99R                  
MILTON NAS     MOCLDY    80  74  81 S5        29.99R                  
CRESTVIEW      FAIR      81  73  76 CALM      30.01R                  
DUKE FIELD     FAIR      81  76  85 S6        30.00R                  
VALPARAISO     FAIR      83  75  76 SW7       29.99R                  
MARY ESTHER    PTCLDY    83  78  83 S3        29.98R                  
TRI COUNTY     FAIR      78  77  96 CALM      30.01R                  
PANAMA CITY    FAIR      82  75  79 SW5       30.00R                  
TYNDALL AFB    FAIR      84  78  83 SW9       30.01R HX  96           
APALACHICOLA   FAIR      84  76  76 SW8       30.02R                  

STATION/POSITION SKY/WX   TEMP    WIND        PRES    WAVE   SWELL
                          AIR SEA DIR/SP/G            HT/PER HT/PER
                          (F)     (DEG/KT/KT) (MB)    (FT/S) (FT/S)
30.1N   87.6W                                   N/A     3/ 6
29.2N   88.2W                     170/ 14/ 16 1015.8S   3/ 6   2/ 8
PANAMA CITY BEAC           85 86  220/ 13/ 14 1016.7R
TOWER C          NOT AVBL

$$
FLZ011-016>038-118-127-128-134-139-239-250400-
NORTH FLORIDA
  
CITY           SKY/WX    TMP DP  RH WIND       PRES   REMARKS
MARIANNA       FAIR      81  76  84 SW6       30.00R                  
TALLAHASSEE    MOCLDY    83  78  85 SW7       30.02R                  
PERRY          FAIR      83  80  92 CALM      30.04R HX  95           
LIVE OAK       MOCLDY    73  72  94 CALM      30.04R                  
CROSS CITY     FAIR      81  78  91 CALM      30.04R                  
LAKE CITY      FAIR      72  70  94 CALM      30.04S                  
GAINESVILLE    MOCLDY    81  75  82 NW7       30.07R                  
PALATKA        FAIR      81  72  74 W7        30.06R                  
MAYPORT NAS    FAIR      87  71  58 SW9       30.00R                  
JACKSONVILLE   FAIR      84  68  58 W10       29.99F                  
JAX NAS        FAIR      87  66  49 SW9       30.01R                  
JAX CECIL      CLEAR     81  66  61 SW7       30.02R                  
FERNANDINA BEA FAIR      85  71  63 W9        29.99S                  
ST AUGUSTINE   FAIR      83  72  69 W5        30.04R                  
PALM COAST     FAIR      81  71  72 W3        30.03R                  

STATION/POSITION SKY/WX   TEMP    WIND        PRES    WAVE   SWELL
                          AIR SEA DIR/SP/G            HT/PER HT/PER
                          (F)     (DEG/KT/KT) (MB)    (FT/S) (FT/S)
SHELL POINT      NOT AVBL
KEATON BEACH               85     260/ 15/ 16 1017.0R
CEDAR KEY                  85     260/  7/ 11 1016.8R
FERNANDINA                 89 87  240/  6/ 11 1016.3
30.7N   81.3W                 83                N/A     2/ 9
MAYPORT                    88 85  260/ 13/ 16 1016.3
31.4N   80.9W              84 83  210/ 16/ 19 1014.7R   3/ 4   2/ 9
ST AUGUSTINE               85 83  270/  8/ 11 1017.2R

$$
FLZ040-043>046-052-053-057-058-063-144-250400-
INTERIOR CENTRAL FLORIDA
  
CITY           SKY/WX    TMP DP  RH WIND       PRES   REMARKS
OCALA          FAIR      79  75  87 CALM      30.06                   
LEESBURG       FAIR      81  74  79 W6        30.06R                  
SANFORD        FAIR      83  70  64 W9        30.03R                  
ORLANDO EXEC   FAIR      85  70  60 W9        30.04R                  
ORLANDO INTL   FAIR      85  70  60 W7        30.04R                  
KISSIMMEE      FAIR      83  72  69 NW8       30.06R                  
WINTER HAVEN   FAIR      82  71  69 NW7       30.07R                  
LAKELAND       FAIR      79  72  78 CALM      30.07R                  
SEBRING        FAIR      84  73  68 NW8       30.05R                  
OKEECHOBEE     FAIR      79  72  78 CALM      30.04R                  

$$
FLZ041-047-054-059-064-141-147-250400-
EAST CENTRAL FLORIDA
  
CITY           SKY/WX    TMP DP  RH WIND       PRES   REMARKS
DAYTONA BEACH  FAIR      81  72  74 W6        30.03R                  
DELAND         FAIR      82  70  65 W6        30.04R                  
JFK SPACE CTR  FAIR      82  69  64 CALM      30.03R                  
CAPE CANAVERAL FAIR      81  42  25 S7        30.02R                  
PATRICK AFB    FAIR      83  79  86 S7        30.03R HX  95           
MELBOURNE      FAIR      84  78  82 S8        30.03R HX  95           
VERO BEACH     FAIR      83  78  85 S3        30.04R                  
FT PIERCE      FAIR      82  75  79 CALM      30.03R                  
STUART         CLOUDY    84  77  79 S7        30.05R                  

STATION/POSITION SKY/WX   TEMP    WIND        PRES    WAVE   SWELL
                          AIR SEA DIR/SP/G            HT/PER HT/PER
                          (F)     (DEG/KT/KT) (MB)    (FT/S) (FT/S)
28.5N   80.2W              84 84  180/ 10/ 12 1016.6R   2/ 9   2/ 9
28.9N   78.5W              83 84  200/  4/  4   N/A     2/ 8   2/ 8
TRIDENT PIER               80 75  160/  6/  7 1018.0
28.4N   80.5W                 79                N/A     1/ 9
27.5N   80.2W                 82                N/A     1/ 9

$$
FLZ050-056-061-142-242-148-248-149-249-151-251-155-255-
160-260-250400-
WEST CENTRAL FLORIDA
  
CITY           SKY/WX    TMP DP  RH WIND       PRES   REMARKS
CRYSTAL RIVER  FAIR     N/A N/A N/A CALM      30.05R                  
INVERNESS      FAIR      77  77 100 CALM      30.06R                  
BROOKSVILLE    FAIR      77  74  90 S5        30.07R                  
CLEARWATER AIR FAIR      81  72  74 CALM      30.05S                  
ST PETE CLEARW FAIR      81  74  79 W5        30.05R                  
TAMPA INTL     FAIR      83  75  77 NW6       30.06R                  
PLANT CITY       N/A    N/A N/A N/A MISG        N/A                   
MACDILL AFB    FAIR      82  75  78 NW3       30.05R                  
PETER O KNIGHT CLOUDY    82  77  83 CALM      30.06R                  
ST PETERSBURG    N/A    N/A N/A N/A MISG      30.04R                  
SARASOTA       FAIR      81  74  79 N5        30.04R                  
VENICE         FAIR      86  75  70 NW9       30.05R HX  95           

STATION/POSITION SKY/WX   TEMP    WIND        PRES    WAVE   SWELL
                          AIR SEA DIR/SP/G            HT/PER HT/PER
                          (F)     (DEG/KT/KT) (MB)    (FT/S) (FT/S)
27.3N   84.2W                 86                N/A     2/ 9
CLEARWATER BEACH           84 90  240/  4/  5 1017.7
MIDDLE TAMPA BAY           84     350/  8/ 10 1017.6
VENICE                     85 86  330/ 12/ 14 1017.5R

$$
FLZ066-069-070-075>078-162-262-165-265-250400-
SOUTHWEST FLORIDA AND KEYS
  
CITY           SKY/WX    TMP DP  RH WIND       PRES   REMARKS
PUNTA GORDA    FAIR      82  75  79 NW7       30.06R                  
FT MYERS       FAIR      84  32  15 NW8       30.03R                  
SOUTHWEST INTL FAIR      84  74  71 CALM      30.04R                  
NAPLES         FAIR      87  76  69 NW6       30.04R HX  97           
IMMOKALEE      MOCLDY    82  72  69 CALM      30.03R                  
MARATHON       FAIR      86  75  69 SE6       30.05R HX  95           
KEY WEST NAS   FAIR      86  75  69 SE5       30.05R HX  95           
KEY WEST INTL  FAIR      86  75  69 SE7       30.05R HX  95           

STATION/POSITION SKY/WX   TEMP    WIND        PRES    WAVE   SWELL
                          AIR SEA DIR/SP/G            HT/PER HT/PER
                          (F)     (DEG/KT/KT) (MB)    (FT/S) (FT/S)
NAPLES                     87 92              1017.0
DRY TORTUGAS               86      50/  7/  8 1017.5R
SAND KEY                   85                 1017.5R
SOMBRERO KEY               85                 1016.9R
LONG KEY                   87     140/ 14/ 18 1017.6

$$
FLZ067-068-071>074-168-172>174-250400-
SOUTHEAST FLORIDA 
  
CITY           SKY/WX    TMP DP  RH WIND       PRES   REMARKS
W PALM BEACH   FAIR      85  75  72 S7        30.04R                  
BOCA RATON     CLEAR     84  77  79 SE3       30.04R                  
FT LAUDER-EXEC FAIR      84  75  74 S5        30.04R                  
FT LAUDERDALE  FAIR      85  75  72 S6        30.04R                  
POMPANO BEACH  FAIR      86  75  69 S7        30.04R HX  95           
PEMBROKE PINES FAIR      86  75  69 SE5       30.06R HX  95           
OPA LOCKA      FAIR      85  76  74 S5        30.06R                  
MIAMI          FAIR      85  73  67 SE3       30.06R                  
WEST KENDALL   FAIR      81  77  88 CALM      30.05R                  
HOMESTEAD      FAIR      82  77  86 CALM      30.04R                  

STATION/POSITION SKY/WX   TEMP    WIND        PRES    WAVE   SWELL
                          AIR SEA DIR/SP/G            HT/PER HT/PER
                          (F)     (DEG/KT/KT) (MB)    (FT/S) (FT/S)
VIRGINIA KEY               87 91  160/  5/  6 1017.0
LAKE WORTH                 84 84  180/  9/ 10 1018.1
FOWEY ROCKS                85 85  190/  6/  7 1018.0R
SETTLEMENT POINT           85     180/  6/  7 1017.5R

$$